Weather History for Trinidad, CO

Change the Weather History Date:

Sunday, May 26, 2013

  Actual Average Record
Temperature  
Mean Temperature 75 °F 62 °F  
Max Temperature 90 °F 78 °F 95 °F (2006)
Min Temperature 60 °F 47 °F 31 °F (1950)
Degree Days  
Heating Degree Days 0 4  
Month to date heating degree days 226 186  
Since 1 July heating degree days 5434 5476  
Cooling Degree Days 10 1  
Month to date cooling degree days 49 15  
Year to date cooling degree days 53 17  
Growing Degree Days 24 (Base 50)    
Moisture  
Dew Point 18 °F    
Average Humidity 23    
Maximum Humidity 42    
Minimum Humidity 4    
Precipitation  
Precipitation 0.00 in 0.06 in 1.04 in (1967)
Month to date precipitation 0.51 1.31  
Year to date precipitation 1.94 4.22  
Sea Level Pressure  
Sea Level Pressure 29.70 in    
Wind  
Wind Speed 12 mph (WSW)    
Max Wind Speed 29 mph    
Max Gust Speed 38 mph    
Visibility 10 miles    
Events      
T = Trace of Precipitation, MM = Missing Value Source: NWS Daily Summary

Daily Weather History Graph

Daily Weather History Graph

Search for Another Location

Airport:

Trip Planner

Search our weather history database for the weather conditions in past years. The results will help you decide how hot, cold, wet, or windy it might be!

Date:

Astronomy

May. 26, 2013 Rise Set
Actual Time 5:41 AM MDT 8:08 PM MDT
Civil Twilight 5:11 AM MDT 8:38 PM MDT
Nautical Twilight 4:33 AM MDT 9:15 PM MDT
Astronomical Twilight 3:53 AM MDT 9:56 PM MDT
Moon 9:58 PM MDT (5/26) 7:12 AM MDT (5/26)
Length of Visible Light 15h 27m
Length of Day
14h 27m
Waning Gibbous, 96% of the Moon is Illuminated
May 26
Waning Gibbous
May 31
Last Quarter
Jun 8
New
Jun 16
First Quarter
Jun 23
Full

Hourly Weather History & Observations

Time (MDT) Temp. Dew Point Humidity Pressure Visibility Wind Dir Wind Speed Gust Speed Precip Events Conditions
12:54 AM 73.0 °F 34.0 °F 24% 29.69 in 10.0 mi SSW 27.6 mph 35.7 mph N/A   Clear
1:54 AM 69.1 °F 36.0 °F 30% 29.70 in 10.0 mi WSW 16.1 mph - N/A   Clear
2:54 AM 66.0 °F 37.0 °F 34% 29.70 in 10.0 mi WSW 13.8 mph - N/A   Clear
3:54 AM 66.0 °F 37.9 °F 36% 29.72 in 10.0 mi WSW 19.6 mph 26.5 mph N/A   Clear
4:54 AM 64.0 °F 39.0 °F 40% 29.73 in 10.0 mi WSW 17.3 mph - N/A   Clear
5:54 AM 60.1 °F 37.9 °F 44% 29.75 in 10.0 mi WSW 15.0 mph - N/A   Clear
6:54 AM 63.0 °F 36.0 °F 37% 29.75 in 10.0 mi SW 17.3 mph - N/A   Clear
7:54 AM 68.0 °F 32.0 °F 26% 29.76 in 10.0 mi SW 12.7 mph - N/A   Clear
8:54 AM 73.9 °F 23.0 °F 15% 29.77 in 10.0 mi SW 8.1 mph - N/A   Clear
9:54 AM 77.0 °F 16.0 °F 10% 29.75 in 10.0 mi West 5.8 mph - N/A   Clear
10:54 AM 82.9 °F 14.0 °F 8% 29.71 in 10.0 mi WSW 11.5 mph - N/A   Clear
11:54 AM 84.0 °F 15.1 °F 8% 29.70 in 10.0 mi Variable 5.8 mph - N/A   Clear
12:54 PM 86.0 °F 15.1 °F 7% 29.67 in 10.0 mi ENE 8.1 mph - N/A   Clear
1:54 PM 86.0 °F 14.0 °F 7% 29.65 in 10.0 mi ENE 5.8 mph - N/A   Clear
2:54 PM 88.0 °F 17.1 °F 7% 29.63 in 10.0 mi North 10.4 mph 18.4 mph N/A   Clear
3:15 PM 89.6 °F 15.8 °F 7% 29.91 in 10.0 mi NW 11.5 mph - N/A   Clear
3:54 PM 87.1 °F 12.0 °F 6% 29.62 in 10.0 mi North 9.2 mph - N/A   Clear
4:54 PM 88.0 °F 3.9 °F 4% 29.62 in 10.0 mi NW 5.8 mph - N/A   Clear
5:54 PM 88.0 °F 1.9 °F 4% 29.62 in 10.0 mi SW 16.1 mph 27.6 mph N/A   Clear
6:54 PM 84.9 °F 1.0 °F 4% 29.61 in 10.0 mi SW 20.7 mph - N/A   Clear
7:54 PM 80.1 °F 1.0 °F 5% 29.63 in 10.0 mi West 13.8 mph - N/A   Clear
8:01 PM 78.8 °F 1.4 °F 5% 29.90 in 10.0 mi West 12.7 mph - N/A   Clear
8:54 PM 68.0 °F 3.9 °F 8% 29.67 in 10.0 mi WSW 9.2 mph - N/A   Clear
9:54 PM 63.0 °F 5.0 °F 10% 29.69 in 10.0 mi SSW 9.2 mph - N/A   Clear
10:54 PM 68.0 °F 8.1 °F 10% 29.67 in 10.0 mi West 10.4 mph - N/A   Clear
11:54 PM 69.1 °F 8.1 °F 9% 29.65 in 10.0 mi West 12.7 mph - N/A   Clear